Retour au catalogue

COSMOS 1247 DEB

ActifHEO
NORAD 12984·DEBRIS·🇷🇺 Russia

Lancé Feb 19, 1981 depuis Plesetsk Cosmodrome

Loading…

Prochains Passages (prochaines 24 heures)

TLE

FraisSource: Space-Track

Époque: Sep 11, 2026, 07:57 UTC

1 12984U 81016F   26254.33175779 -.00000676  00000-0  00000-0 0  9991
2 12984  69.6605   1.3047 6093563 335.9505   4.7426  2.02678686331718

Suivez COSMOS 1247 DEB en temps réel avec AllMySat

Download on the App Store